VOE3595 LPPT-LEAS

Flight info

Callsign VOE3595
Flight time 1h 0m
Altitude 36000
Route IXIDA DCT TOSDI DCT ZMR DCT VETAN DCT OMESI DCT ROVAK M30 XONDA
Aircraft A319/M-SDFGIJ1RWY/LB1

Departure

Time 2026-05-07 15:14
Airport Lisbon Humberto Delgado Airport (LPPT)

Arrival

Time 2026-05-07 16:15
Airport Asturias Airport (LEAS)
Time Latitude Longitude Altitude Speed Heading
2026-05-07 15:02 38.77254 -9.13153 337 ft 0 kts 77°
2026-05-07 15:07 38.77249 -9.13178 336 ft 4 kts 70°
2026-05-07 15:07 38.77238 -9.13208 336 ft 4 kts 51°
2026-05-07 15:07 38.77219 -9.13227 334 ft 4 kts
2026-05-07 15:07 38.77211 -9.13227 335 ft 0 kts 348°
2026-05-07 15:09 38.77218 -9.13229 338 ft 2 kts 348°
2026-05-07 15:10 38.77243 -9.13237 338 ft 5 kts 347°
2026-05-07 15:10 38.77287 -9.13249 338 ft 8 kts 348°
2026-05-07 15:10 38.77328 -9.13292 338 ft 8 kts 279°
2026-05-07 15:10 38.77328 -9.13360 353 ft 7 kts 295°
2026-05-07 15:11 38.77374 -9.13391 342 ft 9 kts 346°
2026-05-07 15:11 38.77445 -9.13410 343 ft 12 kts 348°
2026-05-07 15:11 38.77535 -9.13435 353 ft 14 kts 348°
2026-05-07 15:11 38.77639 -9.13462 349 ft 16 kts 348°
2026-05-07 15:12 38.77748 -9.13491 353 ft 16 kts 349°
2026-05-07 15:12 38.77858 -9.13507 361 ft 16 kts 12°
2026-05-07 15:12 38.77971 -9.13450 361 ft 19 kts 23°
2026-05-07 15:12 38.78099 -9.13381 360 ft 21 kts 23°
2026-05-07 15:13 38.78244 -9.13304 360 ft 23 kts 22°
2026-05-07 15:13 38.78388 -9.13226 363 ft 22 kts 11°
2026-05-07 15:13 38.78524 -9.13278 362 ft 21 kts 314°
2026-05-07 15:13 38.78483 -9.13405 364 ft 19 kts 204°
2026-05-07 15:14 38.78204 -9.13554 368 ft 79 kts 202°
2026-05-07 15:14 38.77482 -9.13944 369 ft 143 kts 203°
2026-05-07 15:14 38.76532 -9.14454 895 ft 144 kts 209°
2026-05-07 15:14 38.75597 -9.14951 1524 ft 146 kts 210°
2026-05-07 15:15 38.74660 -9.15451 2133 ft 150 kts 207°
2026-05-07 15:15 38.73629 -9.16008 2508 ft 172 kts 209°
2026-05-07 15:15 38.72451 -9.16647 2880 ft 197 kts 208°
2026-05-07 15:15 38.71111 -9.17372 3362 ft 221 kts 206°
2026-05-07 15:16 38.69610 -9.18173 3885 ft 246 kts 204°
2026-05-07 15:16 38.67981 -9.19037 4646 ft 259 kts 202°
2026-05-07 15:16 38.66438 -9.20264 5570 ft 267 kts 224°
2026-05-07 15:16 38.65469 -9.22298 6568 ft 274 kts 252°
2026-05-07 15:17 38.65314 -9.24740 7556 ft 282 kts 277°
2026-05-07 15:17 38.65996 -9.27076 8469 ft 290 kts 299°
2026-05-07 15:17 38.67356 -9.29021 9389 ft 298 kts 321°
2026-05-07 15:17 38.69223 -9.30229 10236 ft 307 kts 343°
2026-05-07 15:18 38.71422 -9.30476 10583 ft 332 kts
2026-05-07 15:18 38.73615 -9.29417 11118 ft 344 kts 33°
2026-05-07 15:18 38.75620 -9.27697 11881 ft 349 kts 35°
2026-05-07 15:18 38.77646 -9.25954 12747 ft 353 kts 35°
2026-05-07 15:19 38.79700 -9.24198 13542 ft 357 kts 34°
2026-05-07 15:19 38.81773 -9.22429 14262 ft 360 kts 34°
2026-05-07 15:19 38.83879 -9.20626 14886 ft 366 kts 36°
2026-05-07 15:19 38.85821 -9.18495 15575 ft 370 kts 46°
2026-05-07 15:20 38.87545 -9.16014 16183 ft 376 kts 51°
2026-05-07 15:20 38.88846 -9.13109 16856 ft 378 kts 72°
2026-05-07 15:20 38.89515 -9.09825 17500 ft 382 kts 79°
2026-05-07 15:20 38.90079 -9.06470 18149 ft 387 kts 77°
2026-05-07 15:21 38.91028 -9.03229 18689 ft 391 kts 59°
2026-05-07 15:21 38.92724 -9.00503 19230 ft 394 kts 41°
2026-05-07 15:21 38.94797 -8.98180 19790 ft 397 kts 39°
2026-05-07 15:21 38.96905 -8.95856 20352 ft 402 kts 39°
2026-05-07 15:22 38.99040 -8.93506 20896 ft 406 kts 39°
2026-05-07 15:22 39.01197 -8.91126 21449 ft 411 kts 39°
2026-05-07 15:22 39.03368 -8.88721 22027 ft 414 kts 39°
2026-05-07 15:22 39.05557 -8.86283 22577 ft 418 kts 39°
2026-05-07 15:23 39.07763 -8.83815 23117 ft 422 kts 39°
2026-05-07 15:23 39.09987 -8.81319 23606 ft 427 kts 39°
2026-05-07 15:23 39.12236 -8.78791 24027 ft 431 kts 39°
2026-05-07 15:23 39.14502 -8.76250 24464 ft 434 kts 39°
2026-05-07 15:24 39.16761 -8.73654 24891 ft 438 kts 43°
2026-05-07 15:24 39.18829 -8.70737 25324 ft 441 kts 46°
2026-05-07 15:24 39.20860 -8.67769 25818 ft 442 kts 46°
2026-05-07 15:24 39.22896 -8.64782 26256 ft 445 kts 46°
2026-05-07 15:25 39.24940 -8.61774 26656 ft 447 kts 46°
2026-05-07 15:25 39.26995 -8.58749 27070 ft 450 kts 45°
2026-05-07 15:25 39.29066 -8.55703 27475 ft 453 kts 45°
2026-05-07 15:25 39.31156 -8.52628 27866 ft 456 kts 45°
2026-05-07 15:26 39.33258 -8.49538 28247 ft 460 kts 45°
2026-05-07 15:26 39.35374 -8.46427 28613 ft 463 kts 45°
2026-05-07 15:26 39.37508 -8.43285 28989 ft 466 kts 45°
2026-05-07 15:26 39.39654 -8.40116 29359 ft 470 kts 45°
2026-05-07 15:27 39.41810 -8.36928 29732 ft 473 kts 45°
2026-05-07 15:27 39.43983 -8.33714 30059 ft 476 kts 44°
2026-05-07 15:27 39.46160 -8.30491 30366 ft 478 kts 44°
2026-05-07 15:27 39.48359 -8.27233 30675 ft 481 kts 44°
2026-05-07 15:28 39.50561 -8.23966 30974 ft 483 kts 44°
2026-05-07 15:28 39.52779 -8.20670 31309 ft 486 kts 44°
2026-05-07 15:28 39.55000 -8.17364 31613 ft 487 kts 44°
2026-05-07 15:28 39.57222 -8.14057 32039 ft 486 kts 44°
2026-05-07 15:29 39.59411 -8.10798 32467 ft 486 kts 44°
2026-05-07 15:29 39.61653 -8.07455 32902 ft 485 kts 44°
2026-05-07 15:29 39.63838 -8.04193 33308 ft 485 kts 44°
2026-05-07 15:29 39.66056 -8.00906 33735 ft 483 kts 42°
2026-05-07 15:30 39.68389 -7.97700 34111 ft 480 kts 39°
2026-05-07 15:30 39.70767 -7.94673 34463 ft 478 kts 37°
2026-05-07 15:30 39.73163 -7.91758 34796 ft 477 kts 37°
2026-05-07 15:30 39.75629 -7.88797 35119 ft 477 kts 37°
2026-05-07 15:31 39.78027 -7.85895 35450 ft 477 kts 37°
2026-05-07 15:31 39.79654 -7.83895 35656 ft 477 kts 38°
2026-05-07 15:31 39.82055 -7.80899 35824 ft 478 kts 38°
2026-05-07 15:31 39.85175 -7.76929 35855 ft 472 kts 39°
2026-05-07 15:32 39.89841 -7.70951 35851 ft 470 kts 38°
2026-05-07 15:32 39.93754 -7.65976 35853 ft 470 kts 38°
2026-05-07 15:33 39.98521 -7.59935 35863 ft 485 kts 38°
2026-05-07 15:33 40.03372 -7.53745 35842 ft 495 kts 39°
2026-05-07 15:34 40.08334 -7.47381 35846 ft 497 kts 39°
2026-05-07 15:34 40.13270 -7.41042 35847 ft 498 kts 39°
2026-05-07 15:35 40.18207 -7.34710 35845 ft 498 kts 39°
2026-05-07 15:35 40.23111 -7.28401 35844 ft 498 kts 39°
2026-05-07 15:36 40.28038 -7.22039 35866 ft 498 kts 39°
2026-05-07 15:36 40.32968 -7.15681 35874 ft 497 kts 39°
2026-05-07 15:37 40.37885 -7.09321 35867 ft 497 kts 39°
2026-05-07 15:37 40.42798 -7.02957 35866 ft 497 kts 39°
2026-05-07 15:38 40.47695 -6.96568 35865 ft 496 kts 39°
2026-05-07 15:38 40.52596 -6.90174 35855 ft 496 kts 39°
2026-05-07 15:39 40.57490 -6.83787 35870 ft 496 kts 39°
2026-05-07 15:39 40.62377 -6.77386 35869 ft 496 kts 39°
2026-05-07 15:40 40.67261 -6.70971 35862 ft 496 kts 39°
2026-05-07 15:40 40.72147 -6.64555 35881 ft 496 kts 39°
2026-05-07 15:41 40.77027 -6.58132 35879 ft 496 kts 39°
2026-05-07 15:41 40.81904 -6.51689 35878 ft 496 kts 39°
2026-05-07 15:42 40.86774 -6.45238 35892 ft 496 kts 39°
2026-05-07 15:42 40.91641 -6.38779 35898 ft 496 kts 39°
2026-05-07 15:43 40.96499 -6.32318 35910 ft 495 kts 39°
2026-05-07 15:43 41.01387 -6.25918 35901 ft 493 kts 37°
2026-05-07 15:44 41.06460 -6.19859 35898 ft 490 kts 34°
2026-05-07 15:44 41.11593 -6.13923 35890 ft 489 kts 35°
2026-05-07 15:45 41.16682 -6.07925 35897 ft 490 kts 36°
2026-05-07 15:45 41.21725 -6.01860 35917 ft 489 kts 37°
2026-05-07 15:46 41.29211 -5.92797 35910 ft 486 kts 37°
2026-05-07 15:47 41.34219 -5.86755 35905 ft 486 kts 36°
2026-05-07 15:47 41.39224 -5.80725 35899 ft 485 kts 36°
2026-05-07 15:48 41.44217 -5.74684 35915 ft 485 kts 37°
2026-05-07 15:48 41.49333 -5.68884 35916 ft 477 kts 27°
2026-05-07 15:48 41.52245 -5.66855 35913 ft 468 kts 16°
2026-05-07 15:49 41.55333 -5.65625 35904 ft 459 kts
2026-05-07 15:49 41.61578 -5.65472 35896 ft 445 kts 347°
2026-05-07 15:50 41.67730 -5.66561 35891 ft 446 kts 348°
2026-05-07 15:50 41.73894 -5.67652 35875 ft 447 kts 348°
2026-05-07 15:51 41.80076 -5.68738 35873 ft 448 kts 348°
2026-05-07 15:51 41.86266 -5.69829 35887 ft 449 kts 348°
2026-05-07 15:52 41.92457 -5.70929 35872 ft 450 kts 348°
2026-05-07 15:52 41.98658 -5.72029 35870 ft 449 kts 348°
2026-05-07 15:53 42.04849 -5.73134 35876 ft 448 kts 348°
2026-05-07 15:53 42.11035 -5.74243 35878 ft 449 kts 348°
2026-05-07 15:54 42.17209 -5.75353 35843 ft 442 kts 348°
2026-05-07 15:54 42.20216 -5.75889 35581 ft 431 kts 348°
2026-05-07 15:54 42.23172 -5.76417 35114 ft 426 kts 348°
2026-05-07 15:54 42.26096 -5.76941 34580 ft 422 kts 348°
2026-05-07 15:55 42.28998 -5.77463 34066 ft 420 kts 348°
2026-05-07 15:55 42.31886 -5.77984 33478 ft 417 kts 348°
2026-05-07 15:55 42.34739 -5.78498 32953 ft 412 kts 348°
2026-05-07 15:55 42.37564 -5.79006 32427 ft 407 kts 348°
2026-05-07 15:56 42.40359 -5.79509 31909 ft 403 kts 348°
2026-05-07 15:56 42.43135 -5.80012 31393 ft 400 kts 348°
2026-05-07 15:56 42.45877 -5.80510 30890 ft 396 kts 349°
2026-05-07 15:56 42.48593 -5.80998 30391 ft 393 kts 349°
2026-05-07 15:57 42.51298 -5.81483 29892 ft 390 kts 349°
2026-05-07 15:57 42.53971 -5.81967 29363 ft 385 kts 349°
2026-05-07 15:57 42.56610 -5.82446 28895 ft 380 kts 349°
2026-05-07 15:57 42.59216 -5.82922 28432 ft 376 kts 349°
2026-05-07 15:58 42.61800 -5.83393 27974 ft 372 kts 349°
2026-05-07 15:58 42.64357 -5.83856 27537 ft 369 kts 349°
2026-05-07 15:58 42.66896 -5.84314 27094 ft 367 kts 349°
2026-05-07 15:58 42.69408 -5.84772 26661 ft 364 kts 349°
2026-05-07 15:59 42.71907 -5.85229 26230 ft 361 kts 349°
2026-05-07 15:59 42.74394 -5.85685 25786 ft 359 kts 349°
2026-05-07 15:59 42.76858 -5.86134 25350 ft 356 kts 349°
2026-05-07 15:59 42.79306 -5.86581 24896 ft 355 kts 350°
2026-05-07 16:00 42.81748 -5.87030 24441 ft 353 kts 350°
2026-05-07 16:00 42.84173 -5.87478 23975 ft 351 kts 350°
2026-05-07 16:00 42.86591 -5.87925 23507 ft 350 kts 350°
2026-05-07 16:00 42.88976 -5.88347 22980 ft 350 kts 350°
2026-05-07 16:01 42.91418 -5.88758 22490 ft 348 kts 351°
2026-05-07 16:01 42.93785 -5.89147 22028 ft 347 kts 351°
2026-05-07 16:01 42.96175 -5.89540 21564 ft 346 kts 351°
2026-05-07 16:01 42.98564 -5.89936 21096 ft 345 kts 351°
2026-05-07 16:02 43.00943 -5.90335 20635 ft 344 kts 351°
2026-05-07 16:02 43.03311 -5.90740 20177 ft 343 kts 349°
2026-05-07 16:02 43.05607 -5.91529 19726 ft 339 kts 336°
2026-05-07 16:02 43.07702 -5.92963 19283 ft 335 kts 324°
2026-05-07 16:03 43.09552 -5.94885 18835 ft 334 kts 319°
2026-05-07 16:03 43.11368 -5.96869 18398 ft 334 kts 319°
2026-05-07 16:03 43.13190 -5.98854 17937 ft 335 kts 319°
2026-05-07 16:03 43.15010 -6.00843 17483 ft 333 kts 319°
2026-05-07 16:04 43.16813 -6.02813 17055 ft 331 kts 319°
2026-05-07 16:04 43.18615 -6.04782 16630 ft 330 kts 319°
2026-05-07 16:04 43.20410 -6.06743 16208 ft 330 kts 319°
2026-05-07 16:04 43.22206 -6.08711 15807 ft 330 kts 319°
2026-05-07 16:05 43.23992 -6.10671 15390 ft 329 kts 319°
2026-05-07 16:05 43.25772 -6.12631 14975 ft 328 kts 319°
2026-05-07 16:05 43.27548 -6.14590 14585 ft 327 kts 319°
2026-05-07 16:05 43.29321 -6.16549 14184 ft 327 kts 319°
2026-05-07 16:06 43.31094 -6.18508 13778 ft 327 kts 319°
2026-05-07 16:06 43.32863 -6.20457 13340 ft 326 kts 319°
2026-05-07 16:06 43.34627 -6.22399 12922 ft 324 kts 319°
2026-05-07 16:06 43.36379 -6.24333 12517 ft 322 kts 319°
2026-05-07 16:07 43.38116 -6.26251 12106 ft 320 kts 319°
2026-05-07 16:07 43.39850 -6.28164 11694 ft 318 kts 319°
2026-05-07 16:07 43.41562 -6.30056 11492 ft 312 kts 319°
2026-05-07 16:07 43.43234 -6.31905 11300 ft 306 kts 319°
2026-05-07 16:08 43.44883 -6.33733 10976 ft 304 kts 319°
2026-05-07 16:08 43.46533 -6.35565 10384 ft 310 kts 319°
2026-05-07 16:08 43.48247 -6.37468 9666 ft 321 kts 319°
2026-05-07 16:08 43.50088 -6.39124 9163 ft 312 kts 334°
2026-05-07 16:09 43.52134 -6.39922 8736 ft 301 kts 353°
2026-05-07 16:09 43.54194 -6.39855 8287 ft 293 kts 11°
2026-05-07 16:09 43.56120 -6.39101 7824 ft 284 kts 18°
2026-05-07 16:09 43.57966 -6.38280 7399 ft 275 kts 18°
2026-05-07 16:10 43.59758 -6.37486 7018 ft 265 kts 18°
2026-05-07 16:10 43.61472 -6.36676 6620 ft 256 kts 26°
2026-05-07 16:10 43.62753 -6.35106 6219 ft 245 kts 60°
2026-05-07 16:10 43.63160 -6.32888 5778 ft 239 kts 95°
2026-05-07 16:11 43.62745 -6.30701 5385 ft 234 kts 109°
2026-05-07 16:11 43.62237 -6.28585 4973 ft 231 kts 108°
2026-05-07 16:11 43.61746 -6.26486 4566 ft 228 kts 108°
2026-05-07 16:11 43.61266 -6.24417 4164 ft 224 kts 108°
2026-05-07 16:12 43.60796 -6.22386 3762 ft 219 kts 108°
2026-05-07 16:12 43.60343 -6.20445 3408 ft 206 kts 108°
2026-05-07 16:12 43.59917 -6.18627 3111 ft 191 kts 108°
2026-05-07 16:12 43.59517 -6.16922 2754 ft 181 kts 108°
2026-05-07 16:13 43.59145 -6.15335 2453 ft 168 kts 108°
2026-05-07 16:13 43.58798 -6.13858 2174 ft 157 kts 106°
2026-05-07 16:13 43.58472 -6.12468 1909 ft 148 kts 107°
2026-05-07 16:13 43.58161 -6.11146 1658 ft 141 kts 107°
2026-05-07 16:14 43.57864 -6.09884 1415 ft 136 kts 106°
2026-05-07 16:14 43.57571 -6.08645 1167 ft 134 kts 107°
2026-05-07 16:14 43.57289 -6.07452 948 ft 133 kts 106°
2026-05-07 16:14 43.57013 -6.06240 689 ft 132 kts 105°
2026-05-07 16:15 43.56730 -6.05030 505 ft 131 kts 107°
2026-05-07 16:15 43.56463 -6.03906 417 ft 104 kts 109°
2026-05-07 16:15 43.56327 -6.03332 426 ft 33 kts 108°
2026-05-07 16:15 43.56276 -6.03164 418 ft 15 kts 139°
2026-05-07 16:16 43.56195 -6.03183 423 ft 9 kts 197°
2026-05-07 16:16 43.56157 -6.03200 422 ft 6 kts 198°
2026-05-07 16:16 43.56123 -6.03216 422 ft 4 kts 198°
2026-05-07 16:16 43.56090 -6.03231 419 ft 5 kts 198°
2026-05-07 16:17 43.56068 -6.03236 426 ft 3 kts 172°
2026-05-07 16:17 43.56055 -6.03215 416 ft 3 kts 124°
2026-05-07 16:17 43.56039 -6.03220 420 ft 3 kts 213°
2026-05-07 16:17 43.56021 -6.03252 419 ft 4 kts 239°
2026-05-07 16:18 43.56017 -6.03263 423 ft 0 kts 242°